GW4634 Weather Reports


Display with metric or nautical units.
time (UTC)temp
F
wind
direction
speed
MPH
gust
MPH
rain 1hr
in
rain 24hr
in
rain mn
in
humidity
%
barometer
mb
20260506101524 45 280 0.0 2.0 0.00 1.33 0.22 95 1009.3
20260506100025 45 105 0.0 1.0 0.01 1.33 0.22 95 1008.7
20260506094519 45 105 0.0 1.0 0.01 1.33 0.22 95 1008.2
20260506093014 45 103 0.0 1.0 0.01 1.33 0.22 95 1008.4
20260506091520 45 319 0.0 3.0 0.01 1.33 0.22 95 1009.0
20260506090024 46 300 1.0 4.0 0.02 1.32 0.21 95 1009.3
20260506084526 46 279 0.0 1.0 0.05 1.32 0.21 95 1008.8
20260506083028 46 267 0.0 1.0 0.06 1.32 0.21 95 1008.6
20260506081517 46 344 0.0 0.0 0.07 1.32 0.21 95 1008.7
20260506073026 46 257 0.0 2.0 0.06 1.26 0.15 95 1009.0
20260506071528 46 330 0.0 1.0 0.06 1.25 0.14 95 1008.8
20260506061510 45 37 0.0 0.0 0.04 1.19 0.08 95 1008.9
20260506044526 46 38 0.0 1.0 0.03 1.13 0.02 94 1009.1
20260506043020 46 38 0.0 3.0 0.03 1.12 0.01 94 1009.3
20260506041516 47 105 0.0 1.0 0.06 1.12 0.01 94 1009.4
20260506040008 47 274 0.0 1.0 0.08 1.11 0.00 95 1009.5
20260506034511 47 275 0.0 1.0 0.11 1.10 1.10 94 1009.7
20260506033012 47 203 0.0 2.0 0.14 1.09 1.09 94 1010.0
20260506031530 48 10 0.0 1.0 0.17 1.05 1.05 95 1009.9
20260506030045 48 3 0.0 1.0 0.19 1.03 1.03 95 1009.9
20260506024528 49 3 0.0 1.0 0.20 0.99 0.99 95 1009.9
20260506023012 49 275 0.0 1.0 0.19 0.95 0.95 95 1009.9
20260506021515 49 37 0.0 0.0 0.16 0.89 0.89 95 1009.3
20260506020012 49 37 0.0 1.0 0.11 0.84 0.84 95 1009.2
20260506014526 49 37 0.0 1.0 0.07 0.79 0.79 95 1009.3
20260506013024 49 27 0.0 1.0 0.05 0.76 0.76 95 1009.2
20260506011512 49 9 0.0 0.0 0.03 0.73 0.73 95 1009.3
20260506010018 49 226 0.0 1.0 0.05 0.73 0.73 94 1009.3
20260506004532 49 264 0.0 1.0 0.08 0.72 0.72 94 1009.1
20260506003010 49 289 0.0 2.0 0.07 0.71 0.71 94 1009.1
20260506001509 49 87 0.0 2.0 0.06 0.70 0.70 94 1008.9
20260506000010 49 77 0.0 3.0 0.05 0.68 0.68 94 1008.3
20260505234518 49 52 0.0 2.0 0.03 0.64 0.64 94 1008.5
20260505233021 50 124 0.0 3.0 0.07 0.64 0.64 94 1008.6
20260505231525 50 20 0.0 2.0 0.15 0.64 0.64 94 1008.6
20260505230014 50 64 0.0 2.0 0.16 0.63 0.63 93 1009.2
20260505224510 51 227 0.0 6.0 0.17 0.61 0.61 93 1009.4
20260505223008 51 248 0.0 7.0 0.17 0.57 0.57 93 1009.2
20260505221524 52 46 0.0 5.0 0.16 0.49 0.49 93 1008.8
20260505220030 53 262 0.0 10.0 0.16 0.47 0.47 93 1008.5
20260505214514 53 233 0.0 1.0 0.17 0.44 0.44 93 1008.2
20260505213016 54 95 0.0 2.0 0.17 0.40 0.40 92 1008.3
20260505211516 56 115 1.0 6.0 0.15 0.33 0.33 92 1008.3
20260505210005 56 232 0.0 3.0 0.17 0.31 0.31 93 1008.3
20260505204513 56 298 2.0 5.0 0.17 0.27 0.27 93 1008.5
20260505203021 56 260 4.0 9.0 0.16 0.23 0.23 92 1008.4
20260505201519 57 301 1.0 5.0 0.15 0.18 0.18 92 1008.4
20260505200022 57 280 1.0 3.0 0.13 0.14 0.14 91 1008.5
20260505194507 57 268 2.0 4.0 0.10 0.10 0.10 91 1008.5
20260505193009 58 278 1.0 8.0 0.07 0.07 0.07 89 1008.5
20260505191513 58 288 2.0 5.0 0.03 0.03 0.03 88 1008.6
20260505190014 59 330 2.0 7.0 0.01 0.01 0.01 85 1008.5
20260505184527 60 267 5.0 10.0 0.00 0.00 0.00 80 1008.6
20260505183026 62 287 6.0 10.0 0.00 0.00 0.00 75 1008.5
20260505181511 63 217 6.0 14.0 0.00 0.00 0.00 72 1008.3
20260505180026 64 288 9.0 15.0 0.00 0.00 0.00 70 1008.2
20260505174514 65 274 6.0 11.0 0.00 0.00 0.00 70 1008.1
20260505173024 65 249 6.0 13.0 0.00 0.00 0.00 70 1008.2
20260505171527 64 252 8.0 15.0 0.00 0.00 0.00 70 1008.1
20260505170017 64 283 9.0 21.0 0.00 0.00 0.00 69 1008.3
20260505164517 64 272 10.0 18.0 0.00 0.00 0.00 69 1008.2
20260505163020 65 272 10.0 17.0 0.00 0.00 0.00 67 1008.0
20260505161517 65 274 11.0 20.0 0.00 0.00 0.00 66 1008.0
20260505153022 68 265 9.0 22.0 0.00 0.00 0.00 62 1007.3
20260505151503 67 271 7.0 14.0 0.00 0.00 0.00 62 1007.0
20260505124506 62 240 5.0 14.0 0.00 0.00 0.00 73 1006.7
20260505123010 62 189 6.0 14.0 0.00 0.00 0.00 72 1006.6
20260505121512 62 247 7.0 14.0 0.00 0.00 0.00 71 1006.4
20260505120019 61 256 6.0 14.0 0.00 0.00 0.00 71 1005.8
20260505114508 61 245 4.0 7.0 0.00 0.00 0.00 72 1005.3
20260505113007 61 236 5.0 10.0 0.00 0.00 0.00 71 1005.0
20260505111523 61 248 5.0 15.0 0.00 0.00 0.00 70 1004.8